www.pogodaiklimat.ru

Погода и климат >> Архив погоды >> Алжир >> In-Salah


ПОГОДА в In-Salah

АРХИВ ПОГОДЫ в In-Salah

Время (UTC), дата Ветер
(напр.,м/с)
 
Видим.   Явления Облачность Т
(С)
Тd
(С)
f
(%)
Тe
(С)
Тes
(С)
Комфортность P
(гПа)
Po
(гПа)
Тmin
(С)
Tmax
(С)
R
(мм)
R24
(мм)
S
(см)
03 8.08 В 7 10 км 4/3 1500 м
[Cu med, cong Ci sp]
+32.0 +1.4 14 +29 +29 жарко 1007.4 1007.0
06 8.08 В 7 10 км 5/4 1500 м
[Cu med, cong Ci sp]
+31.6 +5.9 20 +30 +30 жарко 1008.1 1008.0 +30.9
09 8.08 В 11 10 км 5/0
[Ac trans Ci sp]
+37.6 +4.9 13 +35 +35 очень
жарко
1009.6 1010.0
12 8.08 В 8 10 км 4/0
[Ac trans Ci sp]
+42.6 +4.8 10 +40 +42 очень
жарко
1008.2 1008.0
15 8.08 В 4 10 км 5/1 1500 м
[Cu med, cong Ac trans Ci sp]
+43.7 +39 +44 очень
жарко
1006.4 1006.0
18 8.08 В 4 10 км 6/3 1500 м
[Cu med, cong Ac trans Ci sp]
+42.4 +37 +37 очень
жарко
1006.1 1006.0 +44.3
21 8.08 СВ 5 10 км 8/4 1500 м
[Cu med, cong Ac trans Ci sp]
+35.9 +0.2 10 +32 +32 жарко 1007.5 1008.0
00 9.08 В 8 10 км 8/4 1500 м
[Cu med, cong Ac trans Ci sp]
+35.1 +2.4 13 +32 +32 жарко 1007.7 1008.0
03 9.08 В 4 10 км 8/4 1500 м
[Cu med, cong Ac trans Ci sp]
+32.9 +3.5 16 +30 +30 жарко 1008.0 1008.0
06 9.08 В 6 10 км 4/3 1500 м
[Cu med, cong Ci sp]
+31.1 +4.9 19 +29 +29 жарко 1008.9 1009.0 +30.9
09 9.08 В 7 7000 м 4/3 1500 м
[Cu med, cong Ci sp]
+37.4 +9.8 19 +36 +39 очень
жарко
1010.8 1011.0
12 9.08 В 6 7000 м 4/3 1500 м
[Cu med, cong Ci sp]
+42.2 +8.4 13 +40 +45 очень
жарко
1009.9 1010.0
15 9.08 ЮВ 4 7000 м 4/3 1500 м
[Cu med, cong Ci sp]
+43.8 +8.1 12 +42 +47 опасность
перегрева
1007.8 1008.0
18 9.08 ЮВ 1 7000 м 4/3 1500 м
[Cu med, cong Ci sp]
+42.9 +5.7 11 +40 +40 очень
жарко
1006.3 1006.0 +45.0
21 9.08 В 6 8000 м 4/3 1500 м
[Cu med, cong Ci sp]
+38.8 +5.2 13 +36 +36 очень
жарко
1008.1 1008.0
00 10.08 В 8 8000 м 4/3 1500 м
[Cu med, cong Ci sp]
+36.8 +5.3 14 +34 +34 очень
жарко
1008.8 1009.0
03 10.08 Ю 5 5000 м 4/3 1500 м
[Cu med, cong Ci sp]
+34.3 +6.2 18 +32 +32 жарко 1009.8 1010.0
06 10.08 СВ 3 4000 м пыль 6/3 1500 м
[Cu med, cong Ac trans Ci sp]
+31.7 +7.8 23 +31 +31 жарко 1010.9 1011.0 +31.5
09 10.08 В 4 7000 м 6/3 1500 м
[Cu med, cong Ac trans Ci sp]
+38.8 +8.1 16 +37 +41 очень
жарко
1012.0 1012.0
12 10.08 ЮЗ 4 7000 м 6/3 1500 м
[Cu med, cong Ac trans Ci sp]
+42.3 +7.3 12 +40 +47 очень
жарко
1010.9 1011.0
15 10.08 С 4 8000 м 8/4 1500 м
[Cu med, cong Ac trans Ci sp]
+43.3 +5.8 10 +40 +43 очень
жарко
1009.5 1010.0
18 10.08 Ю 5 8000 м 9/5 1380 м
[Cu med, cong Ac trans]
+42.2 +4.1 10 +39 +39 очень
жарко
1008.4 1008.0 +45.1
21 10.08 штиль 0 8000 м 9/5 1380 м
[Cu med, cong Ac trans]
+39.5 +4.7 12 +37 +37 очень
жарко
1009.5 1010.0
00 11.08 В 7 10 км 9/5 1380 м
[Cu med, cong Ac trans]
+37.4 +2.5 11 +34 +34 очень
жарко
1010.1 1010.0
03 11.08 В 4 10 км 9/5 1380 м
[Cu med, cong Ac trans]
+35.7 +8.1 18 +34 +34 очень
жарко
1009.2 1009.0
06 11.08 штиль 0 10 км 8/4 1500 м
[Cu med, cong Ac trans Ci sp]
+34.3 +8.9 21 +33 +33 жарко 1010.7 1011.0 +34.3
09 11.08 ЮЗ 3 10 км 9/5 1500 м
[Cu med, cong Ac trans]
+38.8 +9.9 18 +37 +40 очень
жарко
1011.4 1011.0
12 11.08 ЮЗ 5 10 км 8/5 1500 м
[Cu med, cong Ac trans]
+42.3 +10.5 15 +41 +44 опасность
перегрева
1010.0 1010.0
15 11.08 ЮЗ 6 10 км 9/5 1500 м
[Cu med, cong Ac trans Ci sp]
+42.8 +10.0 14 +41 +42 опасность
перегрева
1008.0 1008.0
18 11.08 ЮЗ 4 10 км 9/5 1500 м
[Cu med, cong Ac trans Ci sp]
+41.4 +8.6 14 +39 +39 очень
жарко
1007.3 1007.0 +43.9
21 11.08 СВ 11 6000 м гроза без осадков 8/5 1200 м
[Cb calv Ac trans Ci sp]
+36.2 +9.6 20 +35 +35 очень
жарко
1010.1 1010.0
00 12.08 СВ 10 8000 м пыльный позёмок {гроза} 6/4 1500 м
[Cu med, cong Ac trans Ci sp]
+34.4 +9.4 22 +33 +33 жарко 1009.8 1010.0
03 12.08 В 8 8000 м 6/4 1500 м
[Cu med, cong Ac trans Ci sp]
+32.4 +11.2 27 +32 +32 жарко 1009.9 1010.0
06 12.08 ЮВ 3 10 км 6/4 1500 м
[Cu med, cong Ac trans Ci sp]
+32.7 +13.6 31 +34 +34 очень
жарко
1009.8 1010.0 +31.9
09 12.08 В 6 10 км 6/3 1500 м
[Cu med, cong Ac trans Ci sp]
+36.4 +13.8 26 +37 +40 очень
жарко
1011.0 1011.0
12 12.08 ЮВ 4 9000 м 4/0
[Ac trans Ci sp]
+41.0 +12.6 19 +41 +53 опасность
перегрева
1010.1 1010.0
15 12.08 СЗ 2 9000 м 4/0
[Ac trans Ci sp]
+43.8 +11.7 15 +43 +51 опасность
перегрева
1007.3 1007.0
18 12.08 С 10 6000 м пыльный позёмок 8/4 1380 м
[Cu med, cong Ac trans Ci sp]
+40.3 +10.6 17 +39 +39 очень
жарко
1006.6 1007.0 +44.3
21 12.08 ЮВ 12 1000 м гроза без осадков 10/5 1300 м
[Cb calv Ac trans]
+35.8 +11.8 24 +36 +36 очень
жарко
1009.4 1009.0
00 13.08 ЮЗ 9 3000 м пыльный позёмок {гроза} 9/5 1380 м
[Cu med, cong Ac trans]
+32.3 +14.6 34 +34 +34 душно 1012.2 1012.0
03 13.08 З 3 4000 м пыль 9/5 1380 м
[Cu med, cong Ac trans]
+29.4 +16.0 44 +32 +32 душно 1009.7 1010.0
06 13.08 СЗ 4 4000 м пыль 6/5 1380 м
[Cu med, cong Ac trans]
+28.2 +16.3 48 +31 +32 душно 1012.3 1012.0 +28.2
09 13.08 С 7 6000 м 6/5 1500 м
[Cu med, cong Ac trans]
+34.3 +19.8 43 +40 +42 очень
душно
1013.7 1014.0
12 13.08 штиль 0 6000 м 6/5 1380 м
[Cu med, cong Ac trans]
+37.9 +20.7 37 +44 +57 опасность
перегрева
1011.9 1012.0
15 13.08 СЗ 5 8000 м 6/3 1500 м
[Cu med, cong Ac trans Ci sp]
+40.8 +15.0 22 +42 +45 опасность
перегрева
1009.8 1010.0
18 13.08 СЗ 4 8000 м 9/5 1500 м
[Cu med, cong Ac trans]
+39.8 +10.5 17 +38 +38 очень
жарко
1008.6 1009.0 +41.7
21 13.08 С 7 8000 м 9/5 1500 м
[Cu med, cong Ac trans]
+35.6 +12.3 25 +36 +36 очень
жарко
1009.2 1009.0
00 14.08 СВ 5 8000 м 9/5 1500 м
[Cu med, cong Ac trans]
+34.8 +12.7 26 +35 +35 очень
жарко
1009.4 1009.0
03 14.08 СВ 4 8000 м 9/5 1500 м
[Cu med, cong Ac trans]
+34.3 +12.6 27 +35 +35 очень
жарко
1008.9 1009.0
06 14.08 СВ 7 10 км 8/5 1380 м
[Cu med, cong Ac trans]
+31.9 +13.5 33 +33 +33 жарко 1009.5 1010.0 +31.9
09 14.08 СВ 7 9000 м 5/4 1500 м
[Cu med, cong Ac trans]
+38.1 +12.4 22 +38 +40 очень
жарко
1010.3 1010.0
12 14.08 В 6 10 км 4/3 1500 м
[Cu med, cong Ac trans]
+40.9 +13.0 19 +41 +46 опасность
перегрева
1009.4 1009.0
15 14.08 С 4 10 км 5/4 1380 м
[Cu med, cong Ac trans]
+42.2 +10.6 15 +41 +45 опасность
перегрева
1008.0 1008.0
18 14.08 СЗ 10 2000 м гроза без осадков 8/5 1200 м
[Cb calv Ac trans]
+40.4 +10.2 16 +39 +39 очень
жарко
1008.5 1009.0 +43.1
21 14.08 В 8 3000 м гроза, ливневой дождь 9/6 1200 м
[Cb calv Ac trans]
+29.1 +22.0 66 +38 +38 очень
душно
1010.3 1010.0
00 15.08 В 3 10 км гроза без осадков {дождь} 9/5 1200 м
[Cb cap Ac trans]
+29.0 +15.4 44 +32 +32 душно 1012.2 1012.0 1

 

Местоположение метеостанции In-Salah (Алжир): широта 27.23 долгота 2.50 высота над уровнем моря 269 м.

В архиве по умолчанию представлена погода в In-Salah за последнюю неделю. Архивные данные за месяц целиком и за предыдущие месяцы, начиная с января 2011 года, Вы можете получить, выбрав интересующий диапазон дат из раскрывающегося списка и нажав кнопку "Ввод!".


*Определитесь, кто Вы:
робот инопланетянин человек

Внимание! Время в таблицах - всемирное. Для получения местного времени необходимо прибавить поправку, которая в In-Salah равна 1 ч.

Смотрите также архив погоды в соседних городах и на ближайших метеорологических станциях:

Погода в Arak (Алжир) (254 км)
Погода в Adrar (Алжир) (274 км)
Погода в Timimoun (Алжир) (313 км)
Погода в Abankor (Алжир) (326 км)
Погода в Moulay Lachen (Алжир) (350 км)
Погода в El-Golea (Алжир) (373 км)
Погода в In Ziza (Алжир) (418 км)
Погода в Mertouek (Алжир) (455 км)
Погода в Rhourde-Nouss (Алжир) (495 км)
Погода в Tin Fouye (Алжир) (514 км)

Пояснения к столбцам:

Ветер - указаны скорость ветра в м/с - средняя за 10 мин, порывы в срок и между сроками (в фигурных скобках) и направление, откуда дует ветер: С - северный, СВ - северо-восточный, В - восточный, ЮВ - юго-восточный, Ю - южный, ЮЗ - юго-западный, З - западный, СЗ - северо-западный.
Видимость - горизонтальная дальность видимости в метрах или километрах. При видимости от 1 до 10 км при отсутствии осадков обычно наблюдается дымка, при ухудшении видимости до 1 км и менее - туман. В сухую погоду видимость может ухудшаться дымом, пылью или мглою.
Явления - указаны атмосферные явления, наблюдавшиеся в срок или в последний час перед сроком; фигурными скобками обозначены явления, наблюдавшиеся между сроками (за 1-3 часа до срока); квадратными скобками обозначены град или гололедные отложения с указанием их диаметра в мм.
Облачность - указаны через наклонную черту общая и нижняя облачность в баллах и высота нижней границы облаков в метрах; квадратными скобками обозначены формы облаков: Ci - перистые, Cs - перисто-слоистые, Cc - перисто-кучевые, Ac - высококучевые, As - высокослоистые, Sc - слоисто-кучевые, Ns - слоисто-дождевые, Cu - кучевые, Cb - кучево-дождевые. Подробнее классификацию облаков см. в Атласе облаков (PDF).
T - Температура воздуха - температура, измеренная на высоте 2 м над землей.
Td - Температура точки росы - температура, при понижении до которой содержащийся в воздухе водяной пар достигнет насыщения.
f - Относительная влажность воздуха - влажноcть воздуха, измеренная на высоте 2 м над землей.
Te - Эффективная температура - температура, которую ощущает одетый по сезону человек в тени. Характеристика душности погоды. При расчете учитывается влияние влажности воздуха и скорости ветра на теплоощущения человека.
Tes - Эффективная температура на солнце - температура, которую ощущает человек, с поправкой на солнечный нагрев. Характеристика знойности погоды. Зависит от высоты солнца над горизонтом, облачности и скорости ветра. Ночью, в пасмурную погоду, а также при ветре 12 м/с и более поправка равна нулю.
P - Атмосферное давление - приведенное к уровню моря атмосферное давление.
Po - Атмосферное давление - измеренное на уровне метеостанции атмосферное давление.
Tmin - Минимальная температура - минимум температуры воздуха на высоте 2 м над землей.
Tmax - Максимальная температура - максимум температуры воздуха на высоте 2 м над землей.
R - Количество осадков - Количество выпавших осадков за период времени, мм. При наведении курсора мыши на число - период времени, за который выпало указанное количество осадков.
R24 - Количество осадков - Количество выпавших осадков за 24 часа, мм.
S - Снежный покров - Высота снежного покрова, см. При наведении курсора мыши на число - состояние снежного покрова и степень покрытия местности в баллах.